Theta_e
326 331 336 343 347 349 354 356 358 365 366 358 361 367 368 367 365 367 367 366 369 366 358 358 357 356 361 360 359 359 358 360 360 357 356 356 350 349 353 350 349 349 349 350 351 352 351 351 349 350 350 348 346 347 347 345 340 338 340 344 347 348 349 350 350 351 351 352 352 353 353 354 354 353 353 353 353 354 352 351 352 351 351 352 352 353 354 354 353 352 352 353 352 351 351 351 349
331 336 339 345 347 353 363 361 360 365 361 357 361 369 369 370 368 366 370 372 371 361 353 349 352 354 357 357 356 360 358 355 357 357 354 352 350 352 352 349 350 352 351 350 351 351 351 351 349 348 347 345 346 347 347 343 340 340 342 346 348 349 350 350 350 350 351 351 352 352 352 352 353 353 353 352 353 353 353 353 352 351 351 352 352 353 353 353 352 351 351 352 352 352 352 352 351
338 343 344 348 350 355 366 366 361 359 356 356 362 372 372 372 372 367 370 370 362 350 350 348 352 354 355 358 356 360 358 352 352 353 351 352 352 353 352 351 353 352 349 350 351 351 351 350 347 346 345 345 345 346 345 342 342 344 346 348 349 349 350 350 351 351 351 351 351 352 351 352 353 353 352 352 352 352 353 353 352 351 351 352 352 353 353 352 352 351 351 352 352 351 351 351 351
342 347 348 350 356 361 366 368 365 359 357 356 358 371 373 373 371 369 370 365 357 349 351 350 353 354 355 359 355 357 357 352 352 352 353 353 352 353 353 353 353 350 350 352 352 351 351 349 347 346 346 345 345 344 343 343 347 348 348 349 350 350 350 351 351 352 351 350 351 352 352 352 352 351 350 350 351 352 352 352 352 351 351 351 351 352 353 352 352 351 352 351 350 350 350 349 348
347 350 351 352 365 370 367 366 367 361 359 361 362 372 373 370 367 368 368 359 357 354 351 351 354 353 355 356 353 356 356 353 353 352 352 352 352 353 353 353 353 352 353 354 352 351 351 348 347 346 346 344 344 343 343 345 349 350 350 350 350 351 351 351 351 351 351 350 350 350 351 352 351 350 350 351 351 352 353 352 351 351 351 351 350 352 353 352 351 351 352 352 350 350 348 345 345
348 352 353 353 361 366 365 363 362 362 366 370 371 376 371 366 368 370 364 356 360 356 349 351 352 353 354 352 351 354 353 353 353 351 351 350 353 353 353 353 353 353 354 354 350 350 350 348 347 346 345 344 343 342 342 345 348 350 350 349 350 350 351 351 351 351 351 351 350 349 350 351 351 351 352 352 352 353 353 352 351 351 352 351 350 351 352 351 350 351 352 351 350 349 345 343 346
348 355 358 358 361 364 365 361 359 365 369 370 373 375 368 367 370 370 361 354 357 351 349 350 348 352 354 352 352 353 351 353 352 351 351 351 352 353 353 353 353 353 353 351 347 349 349 348 346 344 344 344 342 341 343 345 347 348 349 350 350 350 350 351 352 352 352 352 351 350 350 351 351 352 352 352 351 351 352 351 350 350 351 351 351 351 351 350 350 352 351 349 348 345 341 342 348
350 359 364 367 369 369 366 363 364 369 369 366 369 368 366 368 367 369 364 355 355 350 349 350 347 354 354 352 355 354 351 352 352 353 351 351 352 352 354 353 354 353 352 348 346 348 348 346 346 344 344 344 342 343 344 346 347 349 351 351 350 350 350 351 351 351 352 352 351 351 352 351 351 352 352 352 351 350 351 352 351 350 350 350 350 351 351 350 349 351 350 347 344 340 339 344 348
350 359 368 370 369 366 364 364 367 371 371 367 367 365 366 367 365 368 365 357 354 351 350 348 349 356 355 354 356 354 352 352 352 353 352 351 351 352 353 353 353 353 348 346 346 347 347 347 346 345 344 343 344 344 345 347 350 351 351 350 350 350 350 351 351 352 353 351 352 352 352 352 352 352 353 352 351 351 352 352 351 350 350 349 349 350 351 350 349 351 350 346 342 340 344 347 348
353 360 368 371 366 360 359 362 367 371 370 368 367 365 364 365 365 366 365 364 355 351 351 349 352 356 355 355 356 354 351 352 352 352 352 352 352 351 352 353 352 349 346 345 345 346 348 348 347 346 345 345 346 345 347 350 351 351 351 350 350 350 350 351 351 352 352 352 352 352 352 352 352 352 352 351 351 352 352 352 350 350 350 349 349 349 349 350 349 350 348 344 341 343 346 347 349
359 364 366 368 362 357 358 361 367 373 370 367 366 363 363 364 363 363 366 372 360 351 351 350 353 354 354 355 355 354 353 352 352 353 353 353 353 352 352 353 350 345 343 344 345 348 349 349 350 348 347 347 346 347 350 351 351 350 350 351 350 350 350 350 351 351 352 352 353 353 353 352 353 352 351 350 352 352 351 351 349 349 350 350 349 348 348 350 350 350 346 342 342 345 346 347 350
363 369 367 365 361 360 362 362 366 372 370 367 366 364 365 365 362 363 372 373 359 352 352 352 352 353 355 355 355 354 353 353 351 352 352 352 352 352 352 352 348 344 344 345 346 348 349 351 352 350 347 346 347 350 351 351 351 351 351 351 350 349 349 350 350 351 351 352 353 353 352 351 352 352 352 351 352 352 350 350 349 348 349 350 350 348 348 349 350 349 345 342 344 346 346 348 350
367 371 369 365 365 366 365 364 367 369 369 368 367 364 364 366 363 366 375 372 364 354 352 352 349 351 355 353 353 351 352 353 352 352 352 352 352 352 352 351 349 347 346 345 347 349 350 352 351 349 346 346 349 351 351 351 351 351 351 350 350 350 351 351 350 350 352 352 352 352 351 350 351 352 353 352 352 351 350 348 348 349 347 349 351 350 349 349 350 348 344 342 344 345 346 350 350
366 369 371 368 367 369 366 366 368 365 367 369 367 363 362 364 363 366 366 367 370 359 350 349 347 351 354 353 352 350 351 352 352 352 351 352 352 352 351 351 352 351 347 346 348 349 350 351 349 347 346 348 350 351 351 352 352 351 351 350 350 351 350 350 350 350 350 351 352 350 349 348 350 352 352 351 351 351 349 346 347 348 347 349 351 351 350 350 350 348 344 344 345 344 345 350 350
362 367 372 371 367 368 367 366 366 365 369 371 367 363 362 364 366 368 364 364 371 359 348 347 346 351 352 353 352 351 351 352 352 352 352 352 351 352 352 352 352 351 349 347 348 350 351 351 348 348 348 349 349 350 351 352 352 351 351 351 350 351 350 350 350 349 349 350 350 350 350 349 350 351 351 350 351 351 349 345 345 347 348 349 351 350 350 350 348 346 345 345 345 345 346 348 350
362 372 373 369 365 363 366 367 366 366 370 371 367 364 365 367 367 369 366 365 362 352 349 349 345 349 349 349 350 350 351 352 352 351 351 352 351 352 352 351 352 352 352 349 350 353 353 351 350 350 350 350 349 350 350 351 352 351 350 351 351 350 351 350 350 351 351 352 351 351 351 350 350 349 349 349 350 352 350 345 342 345 347 349 349 349 349 348 347 347 346 345 343 344 346 347 348
361 375 374 367 365 363 367 369 367 367 370 371 367 367 369 369 367 368 367 367 365 355 350 348 345 346 346 347 348 350 351 351 351 352 352 352 351 351 350 351 352 353 353 352 353 354 353 350 351 352 352 351 350 350 350 350 351 351 350 351 351 350 350 351 350 351 352 352 352 351 350 349 350 350 349 348 348 351 352 349 344 344 346 347 348 348 347 347 347 347 345 342 342 343 345 346 346
366 381 373 365 369 370 368 368 368 367 368 370 369 370 372 369 367 367 366 369 372 369 354 345 347 346 345 346 347 350 350 350 351 350 351 351 350 349 350 351 352 353 353 354 354 354 352 350 352 354 354 353 349 350 350 350 350 350 350 351 350 349 350 351 350 349 350 351 352 351 351 349 350 351 349 347 348 351 351 351 349 345 345 347 348 348 347 347 346 346 343 342 343 343 345 346 346
371 378 372 369 372 368 365 367 369 369 367 369 370 369 371 371 367 366 366 367 367 369 358 346 349 347 346 346 346 349 349 349 350 349 350 350 349 350 351 352 352 353 354 355 355 354 353 352 354 355 355 354 351 350 350 350 349 348 349 349 349 349 350 350 350 349 349 351 351 351 351 350 349 350 349 348 349 351 351 351 352 348 346 346 347 347 347 346 346 345 343 344 345 346 347 347 347
373 373 377 376 369 365 364 366 368 370 368 370 371 369 371 370 366 364 363 364 363 363 355 348 350 348 346 346 346 349 349 349 349 349 350 349 350 352 353 353 353 354 354 354 355 356 355 353 353 355 354 354 352 351 351 350 348 348 348 347 348 349 348 348 349 348 351 352 351 350 350 350 349 350 350 349 349 351 351 349 350 349 347 346 344 343 343 343 343 343 343 345 346 347 348 347 347
370 370 377 372 363 366 367 366 366 369 369 371 371 369 371 367 364 363 360 364 366 360 352 349 349 347 346 346 346 348 348 349 348 349 349 349 351 353 354 354 354 354 355 355 356 356 356 353 351 353 353 353 352 351 351 350 348 348 348 347 346 347 348 348 348 349 351 350 349 348 349 349 350 350 350 348 348 350 349 345 343 344 345 345 344 343 343 343 342 343 345 346 347 347 347 346 346
367 367 364 362 362 367 367 365 366 366 368 370 370 370 369 366 365 364 363 369 370 361 348 347 348 346 347 346 346 347 348 348 349 348 348 349 350 353 354 355 355 354 355 356 356 356 357 353 349 351 353 352 350 350 350 350 349 349 348 348 347 347 348 349 349 350 350 349 349 349 348 349 349 348 348 347 347 348 346 343 342 344 346 347 349 348 347 347 347 347 347 348 347 347 346 346 345
373 375 358 358 362 365 365 364 365 366 367 369 370 369 367 367 367 365 369 374 373 364 349 347 347 345 347 347 347 348 347 347 348 348 347 348 351 352 353 354 355 356 356 356 356 357 356 353 349 350 351 350 348 349 351 351 350 350 349 348 347 347 348 350 350 350 349 350 350 350 350 348 348 348 347 347 347 347 347 346 347 347 349 349 350 351 351 350 350 350 349 348 348 348 347 347 346
368 373 359 358 362 363 363 363 365 366 367 368 368 368 369 371 368 364 371 371 369 367 353 346 348 346 347 347 347 347 347 347 347 348 347 348 350 352 353 354 356 356 356 357 357 356 355 352 350 349 349 349 348 350 352 352 349 349 350 349 348 348 350 351 352 350 349 350 350 350 349 347 348 348 348 349 348 348 349 349 349 350 350 350 350 351 351 350 350 350 349 349 349 348 347 347 347
361 363 357 358 362 362 362 363 366 366 367 368 369 371 371 371 368 367 371 370 368 364 351 346 347 346 347 347 347 348 347 346 347 347 347 348 348 350 352 353 355 356 356 357 356 355 353 351 350 350 350 349 349 350 352 352 350 349 348 350 350 350 352 352 351 351 349 348 348 348 347 346 346 348 349 351 351 350 350 350 351 350 350 350 351 352 352 350 349 350 350 350 349 347 345 346 346
362 357 356 357 360 361 362 363 365 366 366 366 369 373 371 367 367 371 373 374 371 360 347 346 347 347 347 347 347 347 347 346 346 347 346 347 348 348 349 352 354 355 355 355 354 353 352 351 351 351 351 350 350 350 351 352 352 352 351 351 351 351 352 352 350 349 348 347 348 347 346 347 347 348 351 352 353 352 351 352 352 351 351 352 352 352 352 352 352 352 351 350 349 348 346 346 346
358 353 356 357 360 362 362 365 366 365 366 365 369 372 371 368 369 372 373 372 369 357 346 347 347 346 347 346 346 346 345 345 345 346 346 347 347 348 349 351 353 354 354 353 352 352 352 351 352 352 351 351 351 351 351 352 352 352 351 352 352 351 351 351 350 348 348 348 349 348 346 348 348 349 351 352 352 352 352 352 351 350 352 352 352 351 352 353 353 353 352 350 349 349 348 347 347
352 353 359 359 361 362 362 365 367 367 367 365 368 372 371 371 373 374 371 369 368 358 347 346 346 346 346 346 347 347 345 345 345 344 345 346 346 347 349 351 351 353 354 354 353 352 352 352 353 352 351 350 350 351 352 351 351 350 350 351 350 350 350 350 350 348 348 349 349 349 347 348 349 350 350 350 350 351 352 351 349 349 351 351 351 351 351 353 354 353 352 350 349 350 349 347 347
349 354 360 360 360 361 362 366 367 366 367 365 367 368 370 375 377 376 371 369 368 356 347 346 345 345 345 345 345 346 345 343 344 344 344 346 345 346 348 350 351 352 354 354 354 353 353 354 354 353 351 352 351 350 352 352 352 351 350 350 349 349 349 349 350 349 349 349 349 348 348 349 350 350 350 349 351 351 351 351 349 349 350 351 352 351 351 353 353 352 351 350 350 349 348 347 347
351 352 360 362 362 364 365 365 367 367 366 365 365 363 367 376 375 374 370 368 364 352 348 346 344 345 343 344 345 344 343 341 342 342 344 344 344 346 348 350 350 351 354 355 354 354 355 355 354 354 353 352 352 352 353 352 352 352 351 350 349 348 349 348 349 350 349 348 349 349 349 350 351 351 350 351 352 351 352 352 351 351 352 352 351 350 351 352 353 352 352 351 350 349 347 346 346
351 347 357 363 360 362 364 362 365 369 364 363 364 359 366 376 372 372 369 368 361 348 349 347 343 345 342 342 344 343 342 341 341 341 342 344 343 344 349 349 349 351 353 354 354 354 355 355 355 354 354 353 353 354 353 353 353 352 350 349 349 349 349 348 350 351 350 348 349 351 350 351 351 351 351 352 352 352 352 352 353 353 353 351 350 350 350 351 353 353 353 353 351 349 348 346 346
350 346 342 352 357 359 364 360 363 370 365 364 364 359 368 375 370 370 368 368 368 355 348 346 343 342 342 341 342 343 342 339 340 341 342 343 343 344 347 348 349 352 354 353 353 353 353 354 355 356 355 353 354 355 353 352 351 350 350 349 349 350 350 349 349 351 351 350 350 352 352 352 352 351 352 353 354 353 353 354 353 353 352 352 352 351 351 350 351 350 351 352 352 350 350 349 348
347 348 335 342 354 357 363 360 362 366 365 367 365 362 370 375 369 366 365 370 375 364 348 345 345 342 341 342 342 342 342 341 340 341 342 342 343 343 346 348 350 351 352 352 352 352 353 352 354 356 355 354 353 354 353 352 350 350 350 350 350 349 350 350 349 350 350 350 350 351 353 353 352 352 352 353 354 353 354 354 354 354 354 355 354 353 353 353 351 350 349 351 352 351 351 351 351
339 344 336 344 357 354 359 364 364 364 365 369 367 365 369 371 368 365 364 369 373 369 354 345 344 343 342 342 343 343 342 342 342 341 340 342 342 342 345 347 349 350 351 352 352 351 352 353 353 355 354 353 353 353 353 353 351 351 350 351 350 350 351 350 350 350 348 348 348 349 352 353 352 352 352 352 353 353 355 355 354 356 355 355 354 353 353 353 353 351 350 350 351 351 352 352 351
331 335 331 343 356 354 356 364 366 363 366 368 365 366 370 368 368 368 366 369 371 368 364 359 349 343 344 343 343 344 343 344 342 341 340 342 343 342 346 348 348 349 350 352 352 352 351 352 354 354 354 353 352 352 353 353 353 351 352 352 352 352 352 352 352 352 351 349 348 347 349 351 352 352 351 351 351 353 355 356 355 356 355 354 353 350 350 352 354 354 352 351 351 351 351 352 351
337 336 334 343 351 353 359 364 363 365 367 369 365 365 369 369 372 373 368 368 369 367 368 371 364 345 341 344 344 343 344 344 341 339 340 340 342 343 344 346 347 348 350 351 351 351 351 352 353 355 354 353 353 354 353 353 353 353 353 354 355 354 353 353 353 353 353 352 349 347 347 349 351 352 352 352 352 354 356 356 356 356 355 354 352 349 349 352 354 356 355 354 352 352 351 352 352
339 336 336 344 347 348 359 362 360 363 364 366 368 365 365 369 371 372 368 367 366 365 365 369 370 362 349 342 344 345 344 344 341 337 338 341 342 343 344 345 347 348 349 351 351 350 351 351 353 355 355 354 353 355 353 353 354 353 353 353 355 355 355 355 355 354 355 353 350 349 347 347 351 354 353 353 355 355 355 355 356 356 356 356 353 352 352 353 355 356 356 356 354 352 351 352 352
335 332 333 339 344 348 357 362 360 362 366 363 364 363 364 367 366 367 367 367 365 363 364 363 366 373 366 346 342 347 345 343 340 337 337 341 343 343 345 344 346 349 349 350 350 350 352 351 352 355 355 355 355 355 354 354 354 353 352 352 352 354 355 356 356 356 356 354 353 353 350 347 351 355 356 356 356 356 355 355 356 356 356 355 353 354 356 356 356 355 355 355 355 353 352 353 352
334 332 329 334 343 350 356 361 361 360 365 364 362 362 363 365 364 364 365 366 364 360 361 363 362 372 374 360 346 344 346 345 341 338 338 340 342 343 344 345 347 348 349 349 348 349 350 350 352 355 355 354 355 354 353 353 354 353 353 352 352 353 354 356 356 357 357 357 356 356 352 349 349 352 356 358 358 356 356 356 357 357 357 356 354 356 357 358 356 355 355 355 354 354 353 353 352
332 333 327 332 346 349 348 357 361 357 360 362 361 361 362 364 363 362 361 362 363 359 360 364 363 366 368 364 360 350 344 347 342 339 339 340 343 343 344 346 347 347 348 348 346 348 349 349 351 354 353 353 354 354 353 353 353 354 353 353 353 354 354 354 356 357 357 356 356 357 354 352 349 351 353 356 357 357 356 356 357 357 357 356 356 356 356 358 356 354 355 355 353 353 352 353 352
332 334 328 335 347 348 348 356 359 358 360 361 360 356 357 364 365 363 360 358 362 362 361 362 363 366 362 359 366 362 347 345 344 339 340 341 340 344 345 346 347 346 348 347 346 348 349 348 351 353 352 353 353 353 353 352 353 352 353 354 355 355 355 353 354 357 358 355 355 356 355 354 354 353 352 353 357 358 357 357 356 355 355 357 356 354 355 357 356 354 354 354 353 353 352 352 352
325 333 333 338 346 349 353 353 351 352 355 358 354 350 351 358 360 361 358 358 363 363 362 360 361 366 364 358 364 365 352 344 344 340 341 342 341 343 346 346 347 346 348 348 346 349 350 349 352 352 351 353 352 351 351 351 352 352 352 354 356 356 355 353 353 357 358 357 355 355 352 353 355 356 354 354 356 357 358 358 355 354 354 356 355 353 354 356 357 356 355 354 353 353 353 352 352
321 332 337 340 348 349 348 345 344 344 349 356 350 349 349 353 353 355 355 358 363 362 362 362 360 363 364 361 361 362 353 343 344 343 341 343 342 343 345 346 349 347 348 349 348 350 351 350 351 352 352 353 351 351 351 351 352 351 351 354 355 354 354 353 352 356 358 357 356 356 353 354 357 357 358 356 356 357 359 357 355 353 354 354 353 353 355 356 357 357 355 354 353 353 353 352 351
325 335 337 341 347 348 345 343 342 341 345 351 350 348 349 353 355 357 358 360 363 362 363 362 360 360 363 363 361 361 358 346 343 344 344 344 342 343 345 347 349 349 348 349 350 351 352 350 353 353 352 353 351 351 352 351 351 352 351 354 354 353 354 353 353 355 357 356 357 358 356 357 358 358 359 358 357 358 358 357 355 354 353 354 353 353 355 357 357 358 355 353 355 353 353 353 351
334 338 336 339 344 345 347 343 338 340 342 342 343 344 349 353 357 362 363 361 364 363 362 363 360 360 363 365 363 362 364 359 348 343 342 344 343 343 345 347 348 349 350 349 350 352 352 350 353 353 352 353 351 352 353 351 351 352 353 355 355 354 355 355 354 355 356 357 357 359 358 358 359 358 359 358 357 356 355 356 356 353 353 355 356 355 356 357 357 357 355 354 354 353 353 353 352
336 336 334 336 340 340 344 344 335 335 339 337 337 340 349 353 355 360 362 360 365 367 364 364 363 362 363 365 363 361 366 367 358 350 343 342 344 344 344 347 347 349 349 349 350 352 353 351 353 354 353 353 353 353 353 351 351 352 353 356 355 355 356 356 356 354 355 356 357 359 358 358 360 358 358 359 357 355 353 356 356 353 353 356 357 357 355 356 358 358 356 354 355 353 352 353 353
333 336 333 332 339 339 341 341 331 328 330 332 334 337 346 352 354 359 361 358 363 370 369 365 365 364 364 366 365 360 361 365 364 363 354 345 344 344 344 346 346 348 348 349 351 353 353 352 354 354 353 355 353 353 354 352 353 353 353 355 354 354 356 354 356 354 353 356 357 358 358 357 359 359 359 359 357 356 355 354 355 355 356 357 358 357 355 356 358 357 356 354 355 354 353 355 354
330 335 330 326 332 333 331 330 327 328 328 328 333 337 342 347 353 358 360 356 357 363 368 367 365 364 363 365 363 357 360 364 371 374 365 353 348 345 345 346 346 348 347 349 353 354 354 353 355 354 353 356 353 353 356 354 354 354 352 354 353 353 355 353 356 356 353 356 358 358 357 357 357 358 359 358 357 358 356 355 356 358 357 358 357 357 356 359 359 356 355 355 357 355 355 357 355
331 331 325 322 324 324 324 324 324 325 327 328 336 341 344 348 353 355 357 355 355 357 361 365 365 363 362 361 359 359 363 366 371 375 369 363 357 347 345 346 346 347 346 348 353 354 355 353 356 355 353 357 354 354 357 355 356 356 352 355 352 352 353 353 356 358 357 358 358 357 357 357 357 357 359 358 357 357 356 356 358 358 357 357 357 357 357 359 358 356 356 357 357 356 355 357 356
332 327 321 321 323 324 324 324 323 323 324 330 340 344 345 349 354 356 356 353 354 355 356 361 362 361 362 359 358 363 367 367 368 368 370 369 359 350 347 346 346 347 345 348 353 355 356 354 356 357 354 357 356 355 357 357 357 356 353 354 353 350 353 353 354 357 358 360 359 357 357 358 358 358 359 358 358 358 356 356 358 357 356 356 357 357 357 357 357 356 357 356 356 356 355 356 355
332 330 329 322 320 323 322 321 323 322 324 331 340 345 345 347 352 357 357 355 355 356 356 360 361 360 361 359 360 363 366 368 365 364 369 367 355 351 352 348 348 349 345 347 352 356 357 355 357 357 355 357 357 355 356 358 358 357 352 353 354 351 352 353 354 355 357 359 360 359 358 359 358 358 358 357 358 358 356 357 359 357 356 356 356 357 357 356 357 358 358 357 357 357 356 356 354
330 332 329 321 322 326 320 320 320 318 327 338 340 345 347 348 351 354 356 357 356 356 357 359 361 362 361 361 361 361 362 365 364 364 368 363 354 352 353 351 349 349 346 347 351 355 359 357 357 358 356 357 359 356 357 358 359 357 354 353 355 355 353 355 356 356 357 358 359 360 359 359 359 359 357 357 358 358 356 358 360 358 356 356 357 358 359 358 358 360 358 357 359 358 357 357 355
326 327 323 323 331 328 316 318 319 316 332 343 340 343 346 348 352 353 356 357 355 356 356 357 360 361 360 361 361 359 359 361 362 363 366 362 356 354 355 355 352 350 347 346 350 355 358 358 357 358 358 357 360 359 358 359 359 358 356 355 356 357 356 356 356 357 357 357 358 359 360 360 360 359 358 358 359 358 357 357 359 360 358 358 359 360 360 359 359 361 360 358 359 359 358 357 356
322 319 321 324 329 327 320 320 317 319 335 342 340 342 343 346 351 354 356 356 355 356 354 354 357 358 358 359 361 360 359 359 361 362 363 362 358 355 356 354 352 353 352 350 352 354 356 358 357 358 359 359 360 361 360 360 359 357 357 356 356 357 356 357 356 356 357 356 356 357 359 359 359 358 358 360 359 358 358 357 359 361 361 359 358 357 359 360 358 358 358 357 360 361 359 358 357
324 321 324 324 320 319 320 319 316 323 339 345 345 346 345 347 350 353 357 356 354 354 352 351 353 354 356 356 358 359 357 357 360 361 361 363 359 355 355 354 354 356 355 353 354 355 357 359 359 359 359 359 360 361 361 362 360 358 357 356 357 357 357 357 356 357 356 355 355 355 355 358 360 358 358 359 358 358 359 358 358 361 361 361 359 357 359 362 359 356 356 357 358 360 359 358 358
325 324 325 324 320 318 320 318 316 328 342 346 345 346 348 351 354 355 357 354 350 351 350 350 350 350 351 352 353 355 356 357 359 359 359 359 358 356 354 355 355 354 353 353 354 354 357 360 361 361 361 361 360 360 362 362 362 359 357 356 357 358 357 357 357 357 355 354 354 354 353 354 357 359 358 359 358 357 359 360 359 360 360 361 361 359 359 361 361 358 357 359 358 359 359 358 359
321 320 319 320 321 320 322 319 314 326 340 344 345 348 349 350 354 356 355 350 347 348 349 348 347 345 346 347 350 352 355 357 357 358 358 356 356 356 356 356 354 351 351 352 353 353 354 356 359 360 359 359 361 361 361 362 362 360 358 356 357 357 357 357 357 356 355 353 352 353 352 353 356 357 358 359 359 357 358 359 359 359 360 360 360 361 360 360 361 360 360 360 359 359 359 359 361
320 320 319 320 321 318 319 321 318 323 334 338 342 349 351 349 350 352 350 345 345 346 346 346 345 343 342 344 346 348 351 354 353 355 356 354 354 356 358 357 354 353 355 353 353 353 352 353 355 356 354 352 355 359 359 359 359 360 359 358 357 356 357 357 356 356 355 352 352 353 352 353 354 355 355 357 358 358 357 358 359 359 360 360 359 361 361 361 360 361 360 360 360 359 359 359 361
Wind_Speed
11 14 16 14 11 5 4 3 0 0 1 2 1 1 2 1 1 3 6 6 3 5 8 5 6 5 8 10 11 10 10 2 4 5 2 8 26 30 21 22 25 23 23 21 19 17 16 15 15 15 15 16 18 17 16 16 14 13 14 15 14 13 13 13 13 13 14 14 15 14 14 15 16 16 16 16 16 15 14 14 14 14 14 14 15 15 16 17 18 18 19 21 21 22 21 20 19
13 14 14 11 9 4 1 1 1 1 1 1 1 1 0 1 2 3 6 7 4 5 7 6 11 12 12 10 10 12 13 9 7 9 6 22 30 24 24 27 26 22 22 21 20 18 17 16 15 16 16 17 18 17 17 15 14 13 14 14 13 13 12 12 12 13 14 14 14 14 14 15 15 15 15 15 15 15 14 13 13 13 13 13 14 15 16 17 17 17 18 20 20 20 20 20 19
14 11 11 9 5 3 1 1 1 1 1 2 1 1 0 2 4 5 5 7 5 5 6 10 12 10 13 13 11 11 8 8 13 13 10 25 22 20 29 28 25 23 22 21 19 19 18 17 16 17 17 18 18 18 17 15 13 13 13 12 12 12 12 12 12 13 13 13 14 14 14 14 15 15 15 14 14 14 13 13 13 13 13 14 14 15 15 16 17 18 18 19 18 18 18 19 20
12 9 11 10 3 1 0 1 0 1 1 2 1 2 2 3 6 6 7 9 3 6 7 11 10 7 15 16 10 12 10 7 12 13 10 20 22 28 31 27 26 23 23 20 19 21 19 18 18 18 18 19 19 18 16 14 13 12 12 11 11 11 11 11 11 12 13 13 14 14 15 15 14 14 14 14 14 14 13 13 13 14 14 14 14 14 15 16 17 18 18 18 18 19 19 20 21
12 11 10 8 1 1 1 0 1 1 2 1 1 2 3 4 6 6 6 6 3 6 8 10 8 8 13 12 7 7 9 9 12 15 15 21 29 33 30 28 26 24 23 20 21 22 21 20 19 19 19 19 18 17 15 14 12 12 11 10 10 10 11 10 11 12 13 13 13 14 14 15 14 15 15 15 14 14 13 13 13 14 14 14 14 15 15 16 16 17 18 17 18 19 20 22 22
12 9 9 6 0 2 1 1 1 2 2 1 1 2 5 6 5 5 4 4 4 6 11 11 11 12 10 8 7 7 10 13 14 16 21 27 32 32 30 29 26 25 23 21 23 22 22 22 21 21 20 19 17 16 15 13 11 11 10 10 10 10 10 10 11 12 13 14 14 15 15 15 15 16 16 15 14 14 13 13 13 14 14 14 14 15 15 16 17 17 17 17 19 20 22 23 20
11 5 4 4 1 1 1 2 2 3 2 2 2 2 4 3 2 2 3 7 7 8 13 13 14 13 9 8 8 12 16 16 17 20 26 32 33 32 29 28 26 25 23 22 24 24 23 23 22 20 19 17 16 15 14 12 10 10 10 9 9 9 10 11 12 13 14 14 15 16 16 16 16 16 15 15 15 14 14 14 14 14 14 15 15 15 15 16 17 17 17 18 20 22 24 22 20
12 3 1 2 1 0 1 2 2 2 1 3 2 1 2 3 3 2 1 5 8 8 13 15 14 13 11 10 7 14 21 20 23 28 31 34 33 31 28 28 27 25 23 24 25 25 24 23 22 19 18 16 15 14 12 11 9 9 9 9 10 10 11 12 13 14 14 15 15 16 16 16 16 16 15 15 15 15 14 14 14 13 14 15 15 16 16 15 17 18 17 19 23 24 24 22 21
11 3 1 1 1 1 1 2 2 2 2 2 2 4 3 1 1 2 3 3 9 9 14 15 13 14 13 13 10 12 20 26 30 32 32 32 31 31 29 28 27 25 25 26 27 27 24 23 21 19 18 16 14 13 11 10 9 10 10 10 10 11 12 13 14 15 14 15 15 15 16 16 16 16 16 16 16 16 14 14 13 12 13 15 15 16 17 15 18 19 18 20 24 25 23 22 21
5 1 1 1 1 2 2 2 2 2 2 1 3 2 3 1 1 2 5 3 9 10 17 16 14 16 15 13 10 11 21 30 33 31 30 29 29 30 29 26 26 28 29 29 29 26 24 21 19 18 17 15 14 12 11 11 10 10 10 11 12 13 13 13 14 15 15 15 15 15 16 16 16 16 16 17 16 15 14 13 13 12 13 15 15 17 17 17 19 18 18 22 24 23 23 22 20
1 2 1 1 0 2 2 2 3 1 2 4 2 1 2 1 2 3 4 1 8 14 18 15 14 16 15 11 7 15 26 29 30 31 29 28 28 29 28 26 27 31 32 31 28 25 22 20 17 16 16 14 13 12 11 10 10 11 11 12 13 13 14 14 14 15 15 15 15 16 16 16 16 17 17 17 16 15 14 13 13 13 14 15 16 17 19 19 18 18 20 23 23 23 23 22 19
1 2 2 1 1 2 1 2 2 1 2 4 1 2 1 1 4 3 1 2 8 16 14 10 14 13 13 9 6 19 27 26 28 31 30 29 29 28 28 27 29 32 32 30 27 25 22 19 17 16 15 14 13 12 11 10 11 11 12 13 13 14 14 15 15 16 16 16 16 16 16 16 16 16 17 17 17 14 11 11 12 13 14 15 17 18 19 20 19 19 21 23 23 23 23 21 18
1 2 1 1 1 1 2 2 2 2 1 3 3 2 2 1 4 4 4 1 2 12 12 11 15 12 12 8 8 17 22 25 29 30 29 29 28 28 28 28 29 30 30 29 26 24 22 20 18 16 15 14 13 12 11 11 12 12 12 13 14 13 14 15 16 16 16 16 16 16 15 16 16 16 16 16 16 14 10 10 13 15 15 16 17 18 19 20 20 20 23 24 23 23 23 21 17
2 2 2 0 1 1 2 1 3 4 2 3 4 1 2 1 2 4 6 3 2 9 15 15 15 14 12 10 8 9 16 27 30 30 29 28 28 29 28 27 27 27 28 28 25 23 22 20 18 16 15 14 13 12 11 11 12 13 13 13 14 13 14 15 15 15 16 16 15 16 16 17 16 15 16 16 16 14 10 9 13 16 16 15 16 17 18 19 19 21 23 23 22 22 22 20 17
3 2 2 0 2 1 2 1 4 3 2 4 4 4 1 3 3 2 4 5 1 6 14 16 13 12 12 12 10 10 20 30 30 29 29 28 28 28 28 27 26 25 26 25 23 22 21 20 18 16 15 14 13 12 12 12 13 13 13 14 14 13 14 15 15 16 17 16 16 17 17 17 16 15 16 16 16 15 12 10 12 16 17 15 15 15 17 18 20 22 22 21 21 21 22 20 16
3 2 2 1 2 2 1 1 4 3 1 2 5 6 4 3 1 1 1 1 1 5 12 13 9 10 13 12 15 23 29 31 29 29 29 28 28 28 27 26 25 23 23 22 20 19 19 20 19 16 14 12 12 13 13 13 13 13 14 14 13 14 14 15 16 16 16 16 16 16 16 17 17 16 16 15 17 17 14 12 11 14 16 16 16 16 17 19 21 21 21 21 21 21 21 19 16
4 3 1 1 2 2 1 2 4 4 3 3 4 6 4 2 1 1 1 4 3 4 9 13 11 13 15 16 25 35 33 30 30 30 28 27 27 27 26 25 24 22 21 21 19 18 18 19 19 17 14 12 12 13 14 14 14 14 15 14 13 14 15 15 16 16 16 15 15 15 16 16 17 17 15 15 17 17 16 14 12 12 14 16 17 17 17 19 21 21 21 22 22 21 19 18 17
3 2 1 2 2 2 2 2 3 4 6 5 5 4 3 5 2 2 2 4 3 3 6 14 15 14 18 25 34 36 33 31 29 28 25 23 23 22 23 24 23 22 22 21 20 19 18 18 18 17 16 14 12 12 12 13 13 14 15 15 14 15 16 16 16 17 18 16 15 16 16 16 16 16 15 15 17 17 17 17 14 11 12 14 16 17 17 18 20 21 22 22 22 21 19 18 17
2 1 2 2 2 2 1 2 2 2 7 6 4 4 3 3 3 4 4 3 4 3 6 15 17 17 22 27 32 35 34 31 27 26 23 21 20 19 20 22 21 21 22 22 21 19 18 18 18 17 18 15 13 12 11 12 13 13 14 14 15 16 17 17 16 18 19 16 15 15 15 15 15 15 14 14 16 17 17 18 16 13 12 13 14 16 17 17 19 20 21 22 22 20 18 16 16
0 1 3 3 3 1 0 3 3 2 7 7 4 7 5 2 2 2 4 4 4 4 8 16 17 19 21 22 27 33 32 30 28 26 24 21 19 19 21 21 21 21 22 22 22 20 18 18 17 17 18 16 14 12 11 11 12 13 13 13 14 15 16 17 16 17 17 14 14 14 15 16 15 15 14 14 16 17 17 17 18 17 15 14 16 18 18 19 20 21 21 21 20 18 16 15 16
1 1 2 4 5 3 1 3 5 5 6 6 5 8 7 2 2 4 7 6 4 6 10 18 19 21 21 19 22 27 28 28 28 26 25 23 19 20 21 22 22 22 22 22 23 21 18 18 18 17 16 15 14 13 11 11 11 13 14 13 14 14 15 16 16 15 14 13 15 16 17 16 16 16 15 14 16 17 18 19 20 21 21 19 18 18 19 19 20 20 20 19 18 17 15 15 15
3 2 2 6 6 4 3 5 8 7 5 6 5 7 6 4 4 5 6 4 4 3 13 20 19 20 19 19 20 21 23 23 24 23 24 24 22 21 20 22 22 22 23 22 22 22 19 18 19 17 16 14 14 14 12 11 11 12 13 13 14 14 15 15 15 14 13 15 16 17 18 17 17 18 16 16 17 17 18 20 21 21 20 19 17 15 15 15 15 15 14 14 14 14 14 14 14
3 2 3 4 7 7 6 7 10 7 6 6 5 4 4 6 5 4 4 3 5 2 14 20 17 20 20 19 19 18 18 18 20 20 21 24 24 22 21 22 21 22 23 23 23 22 20 20 20 18 16 14 13 15 13 12 11 11 11 12 12 13 13 14 14 14 15 15 16 16 17 18 18 18 18 17 16 16 17 17 17 16 16 15 15 13 11 11 11 10 9 10 9 8 9 11 12
3 1 2 4 7 10 10 9 9 8 9 5 4 3 3 7 5 4 3 5 3 5 9 19 17 20 20 17 16 16 16 17 20 21 22 24 24 24 23 22 22 23 23 23 23 23 23 22 21 19 16 15 14 15 14 13 11 11 11 11 12 12 12 13 15 16 15 14 15 16 17 18 19 19 18 16 15 15 15 15 14 13 14 13 13 12 10 9 9 9 9 8 7 7 8 9 11
2 2 1 6 6 8 11 10 9 9 9 5 6 4 3 5 3 5 3 3 3 2 8 19 18 18 16 15 15 15 14 16 21 22 22 23 24 25 24 24 24 23 22 23 24 25 25 24 22 20 18 16 15 14 15 15 13 12 11 11 11 12 12 13 15 16 16 15 16 17 18 19 20 20 19 17 15 14 13 14 13 13 13 12 11 9 9 9 9 9 8 9 9 10 12 12 12
5 5 3 8 6 7 12 11 9 9 6 7 8 4 3 3 0 4 3 2 1 6 14 19 16 16 14 14 14 14 13 15 20 21 21 24 25 23 23 25 24 22 23 24 24 25 26 25 23 21 19 17 15 14 14 15 14 13 12 11 10 11 12 12 14 16 17 17 16 17 18 19 19 19 18 17 15 14 13 12 12 13 13 11 9 8 9 10 9 9 9 10 11 11 12 13 13
7 8 6 10 9 8 12 12 10 8 6 7 8 5 2 4 1 3 3 1 1 8 18 18 15 15 14 13 13 13 13 15 20 21 21 23 23 22 23 24 23 23 24 24 25 25 26 25 23 22 20 19 17 15 13 12 12 13 12 12 11 10 11 12 12 14 17 18 17 18 19 18 18 18 17 16 16 16 14 12 12 13 14 12 10 10 10 10 10 9 9 11 12 11 12 13 13
8 9 7 8 9 4 7 11 10 7 5 7 9 8 3 5 1 3 2 2 3 11 18 18 15 14 13 14 13 11 11 17 21 21 21 21 21 22 24 24 23 24 25 25 25 26 26 25 24 23 21 20 20 18 16 12 9 10 10 10 10 10 11 12 12 14 18 19 19 19 21 20 18 17 16 16 17 17 15 13 12 13 14 13 11 11 11 11 10 9 9 10 11 9 11 12 12
11 12 8 6 9 2 5 8 7 5 5 8 9 8 3 3 2 0 2 3 2 11 16 17 15 13 13 13 11 9 11 17 18 18 22 23 23 24 26 25 23 23 24 24 24 26 26 25 24 23 22 21 22 21 19 17 13 11 9 9 9 10 12 13 14 16 18 20 20 20 21 21 19 17 17 16 16 15 14 13 12 12 13 13 11 11 12 11 11 11 11 11 10 9 11 12 11
10 11 9 6 4 1 3 4 6 6 6 10 6 4 2 3 4 4 4 3 4 11 13 14 14 12 12 11 9 9 11 13 13 17 22 24 25 26 28 27 24 23 25 25 24 25 24 23 24 23 21 21 23 22 21 20 17 15 12 11 11 11 13 15 16 17 19 21 21 21 21 20 18 17 17 15 15 14 13 12 12 13 13 12 11 11 12 12 12 12 10 9 9 9 9 10 11
6 6 8 6 3 3 1 0 5 6 5 10 3 2 5 4 4 4 4 4 3 11 11 12 13 11 11 10 9 9 11 12 14 18 22 24 24 26 30 28 25 25 27 26 24 25 24 23 24 23 23 23 23 23 23 21 19 17 14 14 15 16 16 17 17 17 19 22 21 20 19 19 18 17 16 15 14 14 13 12 12 13 13 12 11 11 12 11 11 9 7 6 7 9 8 9 11
4 4 4 5 4 4 2 1 4 4 3 8 3 2 4 3 5 5 4 3 1 8 10 11 12 12 12 10 8 8 9 13 16 20 22 23 23 27 31 29 27 27 27 25 24 25 24 24 24 23 23 24 23 23 23 21 19 17 13 13 16 18 17 16 17 18 19 20 19 19 19 17 17 17 17 16 15 14 13 13 12 12 11 11 11 11 11 10 8 8 6 6 8 10 9 9 10
4 3 3 4 7 5 3 1 2 4 5 6 4 2 4 3 5 5 4 2 3 5 9 11 12 13 13 9 8 8 9 10 13 19 21 21 23 26 29 30 30 28 26 25 25 25 24 24 24 23 24 24 23 24 24 23 23 18 12 12 14 14 12 12 15 17 17 17 16 17 17 16 16 17 18 17 16 16 14 13 13 12 11 10 10 10 10 8 7 7 7 8 9 10 10 11 10
4 4 4 5 8 6 5 3 4 6 7 6 5 2 4 5 7 6 4 1 3 2 6 11 11 12 12 9 8 8 9 8 8 17 21 20 23 25 29 31 30 28 26 25 26 25 25 25 24 23 24 24 24 25 24 26 28 22 14 13 12 10 9 10 12 14 15 14 13 15 16 16 17 17 17 17 16 16 14 13 14 13 12 12 10 10 11 8 7 7 8 9 8 8 9 10 10
7 7 5 6 7 6 7 6 6 9 7 6 6 3 3 7 7 6 4 2 3 2 1 3 7 12 12 8 9 9 8 7 9 18 21 19 23 26 29 31 30 29 27 25 25 24 25 27 24 23 24 23 23 24 23 25 29 27 22 19 15 12 11 11 11 12 13 13 12 13 15 17 17 16 15 16 16 15 13 13 13 12 13 12 10 11 12 10 9 7 7 8 7 8 8 9 10
6 9 7 8 6 4 7 7 8 11 7 5 6 4 3 6 7 5 2 4 4 3 4 3 1 9 12 8 8 10 8 6 12 22 21 18 25 27 28 30 29 29 28 26 26 24 25 28 26 24 24 24 24 23 23 24 25 26 25 23 20 15 12 12 12 11 11 13 13 14 15 16 16 14 14 15 15 13 12 12 12 12 12 11 10 12 11 10 10 8 6 6 6 8 8 10 8
7 7 7 12 9 6 9 9 10 11 5 2 4 5 6 5 5 4 3 5 4 2 3 4 2 3 8 9 11 10 8 8 16 23 21 19 26 27 27 29 29 30 28 27 27 25 26 28 27 25 24 25 25 24 25 25 25 25 24 23 22 19 16 13 12 12 12 13 14 14 15 16 16 14 13 13 14 13 12 12 12 11 11 10 10 11 10 10 10 8 7 6 6 7 7 8 7
11 7 4 10 9 7 10 12 13 8 3 4 5 6 6 5 4 3 4 3 3 4 4 3 4 4 1 6 12 11 7 8 15 19 19 20 26 27 27 28 29 30 28 29 28 26 27 28 27 26 25 25 25 24 25 24 23 23 22 22 22 21 20 16 15 14 13 13 14 14 15 17 17 15 13 13 13 13 12 13 12 11 10 10 10 10 10 10 9 7 7 7 5 5 6 7 8
10 6 1 6 7 8 8 11 15 8 2 5 7 6 4 4 5 4 4 4 3 2 1 3 3 3 2 3 8 12 9 8 12 14 16 20 26 26 26 27 29 31 28 29 28 26 28 29 27 27 25 25 24 23 23 22 21 20 20 20 21 20 19 17 17 16 14 14 13 14 14 16 18 17 14 13 13 13 13 13 13 11 10 10 11 12 11 10 9 7 6 6 5 6 6 6 6
6 5 1 6 10 10 6 8 12 7 4 7 8 6 3 2 4 4 3 4 5 2 1 3 2 1 2 4 2 7 11 10 12 13 13 18 24 24 25 26 29 30 27 28 28 26 29 29 27 27 25 24 24 22 21 19 19 19 18 19 19 18 18 17 17 15 14 14 14 14 14 14 16 16 14 14 14 14 13 13 13 12 10 10 12 13 12 10 10 8 7 7 6 7 7 6 4
5 7 4 7 13 12 9 11 10 5 4 9 9 6 3 2 3 3 3 2 4 4 2 1 4 2 1 3 5 4 8 11 12 13 11 15 21 22 24 27 29 29 26 27 28 25 28 29 27 27 25 23 23 22 21 19 18 18 19 20 19 18 17 17 18 17 14 15 15 15 14 14 14 13 14 15 14 13 12 12 12 12 11 11 11 12 12 11 10 9 7 6 5 5 6 7 5
5 7 4 4 13 14 14 16 12 5 2 7 9 4 2 4 5 4 1 1 3 4 4 3 4 3 2 2 5 6 5 11 11 12 11 13 19 22 24 27 28 27 26 27 27 24 27 29 26 25 25 24 23 22 21 20 19 19 21 22 21 20 19 19 20 20 17 17 16 16 15 14 13 12 12 13 13 14 13 12 12 14 13 12 11 11 12 11 9 8 7 6 4 3 5 9 7
3 5 3 2 13 18 16 16 11 5 4 10 9 4 3 4 4 6 5 1 3 3 5 5 3 3 3 4 5 5 4 10 12 11 11 14 19 21 22 26 27 27 26 27 26 24 27 29 26 25 25 24 24 22 21 22 21 19 20 22 23 23 21 21 22 21 19 18 16 17 16 15 14 13 11 11 13 14 14 12 12 13 14 12 12 12 12 11 8 7 7 6 5 4 5 9 9
2 5 8 6 14 17 16 16 9 4 6 7 7 6 5 2 2 6 8 7 5 4 5 5 4 5 5 6 5 1 3 7 11 11 10 13 21 22 20 24 27 27 27 27 26 25 28 29 26 25 25 24 24 22 22 24 23 20 19 20 22 22 20 20 20 20 20 18 17 17 17 17 16 14 13 13 13 14 14 13 12 13 13 12 12 13 13 10 9 9 8 7 7 6 6 8 9
6 6 6 9 14 14 13 12 6 4 7 5 6 7 5 2 1 3 6 8 8 7 7 7 8 9 7 7 5 1 2 3 6 12 11 12 21 24 22 24 27 28 28 27 26 26 29 30 26 25 25 24 24 22 23 24 24 22 19 18 19 18 17 18 18 19 20 19 19 18 17 18 17 15 15 14 13 15 15 14 13 13 13 12 12 13 11 9 10 11 11 10 9 8 6 7 7
7 8 7 6 12 13 10 6 3 5 7 7 11 9 4 3 2 2 3 5 7 7 6 6 8 9 6 5 3 1 1 4 1 7 11 16 23 25 24 24 25 28 29 27 27 28 30 30 27 26 26 25 25 23 23 24 24 23 21 19 19 18 17 17 17 19 20 20 20 20 18 19 18 16 16 15 14 14 15 14 14 15 14 13 12 12 11 11 12 12 12 12 10 9 7 6 6
6 8 9 5 6 7 6 2 1 2 2 6 16 13 5 4 3 3 3 4 5 6 4 4 6 7 5 2 3 2 3 3 2 3 4 15 26 27 25 24 24 28 29 28 28 30 31 30 28 27 26 25 26 24 23 24 24 24 23 20 19 19 18 18 18 19 21 21 20 21 20 19 19 18 16 16 15 15 15 15 15 15 14 13 12 12 12 13 13 12 12 11 10 9 7 6 5
7 6 3 0 2 2 4 2 1 1 4 2 13 12 7 4 3 4 5 5 6 6 6 7 7 5 4 2 4 4 3 3 2 4 2 7 18 24 25 23 23 28 30 27 29 31 31 30 28 28 27 25 26 26 24 24 24 24 24 20 19 19 19 20 19 19 21 21 21 22 19 18 20 19 17 16 16 16 16 15 14 14 14 13 13 13 13 14 13 12 13 12 10 10 9 7 6
4 4 2 3 1 2 3 3 2 3 4 1 12 13 7 3 4 8 8 7 7 6 5 7 7 5 4 4 7 5 3 3 3 4 2 3 6 14 23 23 20 26 31 27 28 31 30 30 29 28 28 25 26 27 25 25 24 24 24 20 19 20 20 20 20 19 21 20 21 22 19 18 20 20 19 18 17 16 16 16 14 13 14 13 13 14 14 14 13 12 14 13 12 12 11 10 8
1 2 2 4 3 2 2 3 3 3 4 5 13 11 5 2 3 5 8 9 8 7 6 6 8 8 7 7 8 5 3 3 3 4 3 4 4 5 16 22 20 24 31 28 28 30 30 30 29 29 29 26 26 28 26 26 25 24 24 21 19 20 20 20 20 20 20 19 19 21 20 19 20 20 20 19 18 17 16 17 16 14 14 14 14 14 13 13 14 14 14 13 13 12 12 11 11
3 1 0 1 2 4 3 3 4 4 3 5 7 7 4 4 4 4 6 10 10 9 7 6 7 6 6 7 7 4 2 1 3 4 3 4 4 3 5 14 18 24 29 28 29 31 30 31 30 28 29 27 26 29 28 27 26 24 24 22 20 21 20 19 20 19 20 19 18 19 20 19 20 20 19 17 18 18 17 17 16 15 15 15 14 13 13 13 14 14 13 12 11 11 10 11 11
4 2 1 3 3 4 3 3 6 5 5 4 3 4 4 4 7 6 6 10 12 11 8 5 6 5 4 4 3 3 2 1 3 3 3 4 2 2 2 4 13 24 29 26 28 32 31 31 32 29 29 27 26 28 28 27 26 25 25 23 21 21 20 19 19 18 19 19 18 18 18 18 18 18 18 17 18 19 18 17 16 15 16 16 14 14 14 14 13 13 13 12 11 11 11 11 10
2 2 2 5 4 4 2 3 4 2 5 3 1 6 6 5 6 6 6 8 9 9 9 6 6 7 6 4 4 3 3 3 4 4 3 4 4 3 5 4 4 14 26 27 28 33 33 32 32 29 28 27 25 27 28 27 26 24 25 25 23 22 21 20 20 19 19 19 18 17 17 17 16 16 17 16 17 19 18 17 17 16 16 16 15 14 14 14 14 14 14 14 13 11 11 12 10
1 1 3 6 4 1 0 1 2 1 5 3 3 7 7 4 2 3 5 6 5 8 10 9 8 8 8 7 5 5 4 4 3 5 5 5 6 9 10 6 3 3 12 20 24 30 33 34 35 32 29 28 26 26 26 26 26 25 25 25 25 24 23 22 21 20 19 18 18 17 17 17 16 15 16 15 16 18 17 16 17 16 16 16 15 15 14 13 13 14 14 14 14 12 11 12 11
1 2 3 3 2 3 0 2 2 2 5 3 3 3 2 2 2 4 6 7 9 11 11 11 9 9 8 8 8 7 6 5 5 6 5 5 7 8 4 4 3 5 1 9 13 21 25 27 31 32 31 30 27 25 26 25 25 25 25 26 25 25 25 23 21 20 19 19 19 18 17 17 16 15 16 16 16 17 18 17 16 16 16 15 15 14 15 14 13 13 14 13 13 12 12 12 12
3 4 4 2 3 2 2 2 3 3 5 4 3 1 2 1 1 3 5 8 11 12 10 10 10 10 9 7 8 7 5 5 5 6 5 6 8 5 6 3 5 7 6 4 7 14 17 18 21 23 26 29 28 25 25 25 26 25 25 26 26 25 25 24 22 21 21 20 19 19 18 18 17 15 15 16 17 18 18 17 16 17 17 16 15 15 15 14 13 13 12 12 12 12 12 12 11
0 2 4 4 2 1 2 4 3 5 6 5 6 3 1 1 2 3 5 8 10 11 11 10 10 11 10 8 8 6 4 4 5 6 7 7 6 3 1 8 9 4 3 3 4 10 15 16 15 11 10 17 23 24 22 22 24 26 25 26 27 26 24 24 23 22 22 21 20 19 18 18 18 18 17 16 17 20 19 17 17 17 17 16 16 15 15 15 14 13 13 12 12 12 12 12 11
3 2 4 5 4 3 2 4 2 3 5 6 7 5 2 1 1 2 3 8 11 11 12 11 10 11 10 8 9 7 5 6 7 7 7 8 7 4 7 15 12 3 2 4 7 8 11 13 11 6 2 7 13 17 18 16 18 23 26 26 27 27 25 24 23 22 22 22 22 21 20 19 19 19 19 17 18 20 20 19 19 19 18 17 17 16 16 16 15 15 15 13 12 13 13 13 12
Wind_Direction
155 157 157 152 146 165 222 215 308 306 211 300 296 68 96 105 153 141 150 185 225 184 210 196 117 81 89 107 116 80 30 48 144 128 139 136 148 152 150 157 155 148 150 149 147 145 146 147 147 147 142 136 129 123 122 120 119 112 104 99 97 97 97 98 97 96 95 94 94 94 96 97 98 97 97 100 100 100 98 96 96 96 97 97 98 99 102 102 103 107 108 111 113 113 115 114 113
161 158 161 158 155 168 275 254 314 3 283 295 265 129 156 115 145 194 178 189 219 164 173 125 91 85 93 99 95 72 35 14 88 99 100 131 143 149 151 156 150 148 151 146 144 145 146 148 149 143 135 131 126 125 125 125 122 112 104 101 101 101 101 100 99 97 95 95 96 96 97 97 97 99 98 98 99 101 102 101 101 102 103 101 102 102 105 106 106 104 103 106 109 111 114 115 117
161 156 168 176 186 211 314 347 305 346 296 270 250 199 202 130 177 211 210 222 215 135 123 90 80 82 84 71 61 77 68 29 86 96 114 135 143 153 153 151 147 149 146 143 145 147 147 147 145 138 131 129 126 127 128 128 121 111 107 105 105 104 103 102 100 99 99 100 99 99 99 99 99 98 99 99 101 102 102 102 102 103 105 105 103 102 104 105 105 104 103 106 108 111 113 116 117
168 178 182 185 196 223 327 14 312 310 247 256 275 213 181 177 198 202 227 240 201 100 93 85 76 80 86 88 87 87 95 67 89 101 126 146 149 151 150 147 147 144 140 144 150 149 146 144 141 136 132 128 127 129 131 126 116 111 110 107 107 106 106 105 105 103 103 104 100 99 98 99 99 98 100 101 101 102 103 104 105 105 105 107 105 102 102 103 104 105 105 108 111 111 113 118 117
186 206 210 210 229 95 149 321 193 250 234 233 267 219 201 207 204 201 238 233 141 97 103 103 95 90 84 91 103 94 112 106 102 111 126 144 145 146 146 145 144 139 142 149 152 149 145 143 139 136 132 130 132 134 129 121 115 111 109 111 112 110 110 110 110 107 105 104 100 99 99 101 99 99 100 100 102 102 104 105 106 106 105 107 107 104 100 101 104 107 107 109 113 114 116 119 116
199 223 236 227 241 104 130 303 256 257 251 224 256 229 207 216 210 207 225 168 129 93 97 98 100 96 83 83 90 106 129 122 119 122 128 139 143 144 144 143 141 139 146 152 153 149 145 144 139 137 135 135 136 132 126 122 119 113 114 116 117 117 115 112 110 107 104 102 100 100 101 103 101 101 101 102 102 102 102 103 105 106 106 107 108 107 104 105 107 108 110 113 116 117 119 119 114
192 214 243 193 100 84 144 277 275 274 261 216 216 222 230 243 231 195 152 138 109 84 96 102 107 100 93 101 98 103 115 121 126 130 134 139 141 142 142 141 139 140 148 154 152 147 144 143 140 139 137 136 133 129 126 124 120 117 122 122 121 122 119 113 108 106 104 101 100 102 102 101 102 102 101 101 101 102 101 100 103 105 108 108 107 108 107 107 110 111 112 117 118 117 118 118 113
200 197 351 134 70 321 176 249 248 254 230 230 229 51 12 3 358 20 76 145 116 107 107 106 106 96 93 101 100 105 110 118 125 131 135 137 139 140 141 139 137 141 151 152 147 144 143 142 141 139 136 134 131 129 127 123 122 121 125 124 122 118 115 115 110 107 104 103 103 105 104 102 103 101 99 100 100 100 100 100 102 105 108 108 109 110 109 110 113 112 113 118 117 117 118 119 115
218 213 24 87 59 302 250 262 252 233 222 249 28 60 90 97 34 52 259 178 118 116 104 102 103 99 102 99 96 104 111 119 125 131 135 138 139 141 141 139 139 145 151 149 144 143 143 144 142 139 136 133 131 130 129 128 128 127 127 124 118 111 110 111 112 109 105 106 107 107 106 106 105 102 100 98 97 97 99 101 102 105 107 107 110 112 113 115 115 115 119 121 119 119 121 120 114
219 188 69 93 76 290 264 257 248 236 268 58 70 121 138 166 103 76 270 175 109 103 98 97 97 103 111 104 100 108 119 126 129 132 138 138 136 139 140 139 145 149 150 147 144 144 144 145 141 138 136 133 134 134 135 136 132 130 126 121 114 110 110 109 111 111 108 108 109 107 105 106 104 102 100 97 97 98 99 100 102 105 105 108 110 112 117 116 113 116 122 125 123 122 122 118 108
195 48 77 74 108 267 264 255 240 255 348 70 87 188 97 340 98 67 298 89 95 100 105 104 103 109 110 100 100 118 126 131 132 134 139 138 136 138 138 140 148 150 148 147 146 146 145 143 140 137 137 136 137 139 141 139 135 132 123 117 111 108 109 110 113 113 112 111 110 107 104 102 101 100 97 97 97 96 100 103 104 102 103 107 108 114 118 115 115 118 121 124 124 124 123 114 103
188 67 72 334 256 246 251 258 237 230 12 81 118 286 192 196 103 107 246 105 107 112 118 117 116 116 107 98 117 131 134 135 134 136 139 139 138 136 136 141 147 148 147 148 147 145 144 142 141 140 140 140 141 144 144 139 133 126 118 112 107 107 108 110 114 116 115 112 109 106 105 102 101 100 97 95 93 93 100 108 107 103 104 105 108 113 115 115 118 124 125 125 125 125 122 111 103
144 114 103 292 248 267 274 260 201 169 51 100 182 256 277 197 113 149 164 200 140 120 117 114 122 120 109 112 134 140 138 137 136 137 140 139 135 133 135 139 142 146 148 148 145 144 143 142 143 143 143 144 146 146 142 137 130 120 114 110 109 111 112 113 115 118 117 112 108 106 107 107 105 102 99 97 95 95 96 104 107 105 105 104 108 111 113 117 121 126 128 127 126 126 122 112 107
124 131 125 272 293 288 283 260 177 162 127 154 173 100 348 338 141 163 161 194 287 121 122 124 127 116 116 131 136 141 137 139 140 140 140 135 132 132 134 137 139 144 148 146 144 143 143 142 144 145 148 150 150 146 140 134 127 119 113 111 113 114 115 116 116 118 118 114 111 109 107 108 109 105 102 100 98 97 92 97 104 103 104 104 106 109 112 117 120 123 125 126 125 127 126 117 110
128 118 113 262 293 261 254 226 173 157 152 174 133 112 227 263 203 172 164 163 178 133 125 129 133 122 137 149 142 143 141 142 142 139 136 132 133 132 133 135 137 141 145 145 144 144 143 144 147 149 153 155 150 146 141 133 124 121 117 116 116 116 115 115 115 115 116 115 112 111 109 108 109 106 104 103 101 100 95 91 92 95 100 104 104 106 111 114 118 120 123 123 122 128 129 121 113
120 97 86 234 282 298 268 171 155 152 186 176 122 149 191 252 228 126 189 100 95 134 125 140 144 131 144 146 138 140 143 143 139 135 134 133 133 132 133 134 136 139 142 143 143 145 149 150 149 151 154 153 149 143 138 131 124 123 119 116 118 120 117 115 117 116 115 115 114 113 112 110 109 108 107 107 106 104 101 92 86 91 99 105 106 106 110 115 118 120 121 121 122 126 126 122 117
103 100 87 240 266 315 283 153 153 147 151 147 144 184 172 102 14 20 314 22 46 115 129 143 132 128 137 135 136 138 141 140 137 134 133 134 134 135 136 136 139 141 144 146 147 153 158 155 151 150 150 151 148 140 137 133 129 129 124 121 123 120 117 118 121 122 120 116 117 117 113 112 112 111 112 112 108 107 107 101 92 93 99 102 105 107 110 114 118 121 121 121 124 126 124 122 116
118 108 113 262 259 275 272 174 176 136 128 146 165 192 128 106 84 8 16 32 24 24 107 130 125 128 129 131 135 136 137 138 137 136 135 137 140 141 138 139 143 144 147 148 152 160 162 157 152 149 148 150 148 141 138 134 132 132 130 130 128 122 124 125 123 126 125 121 122 120 117 116 117 117 117 116 112 111 113 111 106 98 95 98 103 107 110 115 118 120 120 121 123 125 124 121 116
138 127 133 262 248 241 274 130 173 131 131 148 152 131 81 93 84 31 38 27 352 12 120 130 125 126 126 134 137 136 138 138 138 137 137 143 146 141 134 138 142 143 146 148 152 159 161 157 153 151 149 148 147 145 140 134 133 132 132 134 130 127 130 129 126 126 123 124 127 125 123 123 123 123 120 118 115 114 114 114 113 108 100 98 101 107 112 117 119 120 122 122 125 126 124 120 119
241 128 148 246 222 200 320 140 151 122 134 145 134 108 80 46 56 62 102 83 317 266 160 134 129 132 134 140 140 140 141 137 140 142 142 148 146 136 135 140 142 145 148 149 151 156 163 163 158 154 150 146 144 147 144 137 135 133 132 129 128 131 130 128 129 126 122 128 133 133 132 129 128 126 122 122 121 118 117 115 116 117 116 114 110 108 111 115 119 123 125 127 128 128 126 121 120
227 147 165 212 203 176 232 189 150 126 129 135 128 111 102 111 95 105 121 123 248 241 152 134 137 139 139 143 141 143 142 139 147 151 149 148 143 138 141 144 145 150 150 149 151 154 162 166 163 157 151 149 148 150 148 139 136 136 135 133 133 134 130 126 125 124 124 132 132 133 136 132 129 127 125 128 127 123 122 121 119 119 120 120 116 111 112 116 120 125 127 129 129 130 130 125 122
147 270 248 190 185 156 197 188 138 126 118 110 121 118 121 137 106 107 124 146 247 210 133 134 139 139 143 143 141 143 140 143 152 154 150 145 143 144 146 148 148 150 149 149 151 154 161 165 165 160 157 157 153 151 147 141 140 140 140 141 141 138 134 129 127 127 128 131 127 128 135 134 131 128 127 128 126 123 121 122 121 119 119 119 118 116 119 122 125 128 129 130 130 134 138 138 132
147 305 327 195 176 147 174 167 132 131 124 114 126 121 127 121 95 104 131 194 276 320 131 135 137 140 142 141 142 144 144 149 151 151 148 143 144 147 149 150 150 148 147 149 151 154 159 161 164 162 161 160 155 151 147 147 149 148 149 147 145 143 139 135 135 137 138 137 133 134 138 137 135 134 131 130 128 125 122 123 123 123 123 122 122 123 126 128 131 135 137 136 136 145 156 160 155
145 136 330 209 177 148 159 153 133 130 121 120 131 115 127 118 110 135 176 212 254 329 132 134 136 141 141 144 146 144 148 151 148 151 149 144 146 147 149 150 150 149 147 150 153 156 159 160 163 162 160 159 157 156 155 155 155 157 157 151 147 144 139 139 141 143 146 146 143 145 144 139 138 138 136 135 134 130 129 128 127 128 128 125 124 127 132 131 134 141 142 139 142 151 155 161 165
151 159 199 174 163 146 151 146 130 121 114 122 123 107 90 91 117 149 180 204 147 266 156 134 138 143 142 148 145 143 152 151 149 153 150 145 147 149 149 147 149 151 149 154 157 158 161 161 162 161 160 160 160 165 162 157 157 159 156 150 148 143 140 142 143 145 149 150 147 149 145 140 141 139 137 137 135 132 133 132 129 133 133 128 127 133 141 138 141 148 147 142 141 138 131 133 143
187 170 152 145 149 157 151 143 130 116 115 127 113 89 52 53 80 141 176 238 117 190 155 136 142 144 145 150 144 149 157 153 153 155 149 144 148 150 146 142 146 152 155 160 160 160 163 163 163 162 160 159 160 165 164 160 166 168 159 157 156 147 146 144 140 145 152 150 148 150 146 142 142 140 138 140 141 142 142 138 137 140 135 133 140 152 153 146 146 152 154 148 146 144 141 140 141
181 159 146 154 154 159 152 141 133 118 118 133 114 99 48 6 344 123 163 208 77 167 147 138 147 145 150 151 147 161 161 157 159 153 145 144 151 150 140 141 147 151 158 162 161 162 163 162 163 162 159 157 157 160 164 168 172 168 160 162 161 153 152 149 147 153 157 151 148 151 152 147 144 143 141 143 146 145 146 149 151 146 139 139 148 157 156 151 148 148 149 150 153 153 151 153 152
154 118 108 138 115 101 161 139 134 127 120 134 115 101 48 349 359 124 142 31 95 159 147 143 150 149 155 152 155 170 160 162 163 152 146 149 154 147 139 145 150 149 155 161 162 162 160 160 160 160 157 155 157 158 163 172 172 160 156 159 158 160 161 155 152 152 151 149 147 150 153 151 149 147 143 143 146 145 146 153 154 146 143 142 143 148 150 147 145 137 131 142 157 159 150 154 160
144 126 108 101 80 66 192 136 134 140 129 148 125 96 44 323 312 323 318 349 134 159 150 149 154 154 156 156 163 167 159 168 165 153 152 154 154 147 143 147 151 150 151 155 162 161 159 158 155 157 155 153 156 156 158 167 174 173 169 161 158 165 165 156 146 142 145 148 148 150 152 152 150 145 141 143 146 146 148 153 151 146 146 142 141 148 150 144 139 134 130 136 148 155 155 159 161
152 150 127 101 85 176 175 102 137 134 138 170 154 99 168 264 297 307 312 324 161 158 154 154 156 156 154 156 166 161 160 170 166 159 156 153 152 148 144 147 153 153 147 150 160 160 158 156 154 155 153 151 152 150 152 162 175 184 178 167 167 167 159 151 142 139 145 148 149 151 152 153 149 144 145 147 149 150 149 147 144 145 147 144 142 150 153 146 140 139 141 146 149 152 156 163 161
158 158 133 132 157 187 181 156 152 123 158 192 196 115 176 230 264 273 286 299 170 159 160 157 156 154 148 154 168 161 161 168 163 156 149 147 149 144 142 148 152 149 146 153 160 156 155 155 155 155 150 148 147 147 151 160 173 179 171 163 163 163 156 150 144 141 145 149 150 151 151 152 150 148 152 153 152 154 153 145 139 142 147 143 141 145 147 146 144 148 153 161 167 161 147 148 154
160 159 162 162 141 162 208 242 147 107 187 214 236 129 156 203 226 245 258 285 115 158 168 161 155 149 142 158 174 154 156 167 156 145 144 147 148 143 145 149 148 145 149 159 161 153 152 153 154 155 153 151 150 152 154 158 166 168 162 157 154 154 151 146 144 144 145 149 150 149 148 151 151 153 156 156 153 153 154 150 144 144 148 147 146 145 142 144 147 151 155 152 151 149 138 135 145
156 160 197 149 119 149 175 132 176 144 161 218 248 146 133 173 196 224 248 285 59 149 178 167 156 146 146 165 171 147 155 170 151 144 151 154 151 149 149 148 147 148 154 159 157 152 153 152 151 154 156 155 154 156 155 155 163 163 155 155 150 144 139 137 143 149 150 149 149 150 150 154 157 158 159 158 156 154 154 157 155 153 157 158 153 152 149 147 147 145 148 148 140 139 138 139 141
167 181 194 137 130 152 155 164 200 175 163 199 230 171 128 142 166 193 219 226 77 145 188 176 161 142 149 168 156 148 163 172 147 146 158 161 155 150 146 146 147 152 156 156 152 152 152 149 150 152 152 152 151 153 152 151 157 156 149 154 153 142 139 142 146 152 155 154 154 158 158 159 160 160 162 162 159 156 154 159 157 156 166 166 156 159 162 160 156 149 144 143 141 143 141 142 149
164 182 186 126 141 155 163 180 173 175 181 189 195 181 122 134 154 183 182 112 75 51 77 178 167 141 151 169 150 153 170 170 142 147 166 166 150 144 143 146 149 151 154 153 151 152 149 148 152 152 150 152 151 150 150 146 149 150 148 153 159 161 160 156 152 151 155 159 163 166 166 166 164 160 161 161 160 155 153 160 158 157 167 164 154 157 161 160 155 149 141 135 137 143 131 127 144
181 187 175 133 149 172 179 178 154 166 170 172 179 147 133 148 150 165 124 71 65 56 43 21 198 147 155 170 150 158 172 167 141 150 174 169 145 143 142 145 148 150 153 153 152 153 151 151 153 152 152 156 152 150 151 146 147 151 152 155 160 168 168 156 149 149 156 164 166 168 172 174 168 160 157 156 154 150 153 162 159 159 164 160 158 156 155 159 155 151 150 140 138 140 125 119 133
258 225 175 146 153 176 184 169 158 169 145 167 196 128 148 171 150 139 72 54 51 44 51 40 20 117 166 173 152 158 174 162 143 155 180 165 142 144 143 143 146 149 154 155 155 155 155 154 152 153 157 158 155 155 157 152 150 153 157 160 161 164 165 159 157 158 163 170 168 168 174 177 172 161 156 154 150 149 158 163 155 159 165 161 162 155 147 150 151 158 163 150 142 139 131 128 138
272 267 160 142 146 158 173 158 153 157 93 175 186 132 163 181 143 107 81 83 38 33 44 33 25 39 231 187 155 158 175 160 146 162 182 157 141 145 143 143 145 147 152 155 156 156 155 155 154 158 160 161 161 160 161 159 157 158 160 163 164 164 165 163 168 170 171 173 170 168 171 177 176 168 163 160 156 158 164 162 156 163 168 164 164 154 143 143 148 161 165 156 148 146 147 145 146
266 277 135 134 134 130 148 152 144 133 96 152 138 120 166 174 125 85 75 100 71 69 87 25 19 45 321 249 162 161 171 164 151 167 179 152 142 146 143 143 144 147 151 154 157 157 156 157 159 162 163 164 164 161 163 162 161 165 166 165 164 164 165 165 168 170 174 177 174 169 168 175 178 174 173 169 163 166 169 164 163 171 169 162 161 156 151 149 152 163 165 156 136 139 154 155 157
248 253 212 133 140 135 145 155 139 131 126 121 119 120 128 134 117 73 22 62 83 134 132 23 339 354 333 309 266 175 173 165 156 167 171 149 145 145 143 144 145 149 152 155 159 158 158 160 162 165 166 166 166 165 167 165 163 167 169 168 165 164 167 169 168 167 178 183 177 173 172 176 178 177 180 175 167 169 172 169 170 175 168 157 157 158 158 159 158 159 157 152 134 135 153 151 151
240 242 220 146 152 151 151 150 130 96 97 123 130 113 89 170 158 98 1 39 115 132 111 301 287 322 14 310 309 263 185 165 159 170 167 148 148 146 144 146 148 152 154 158 163 162 162 163 166 168 166 167 170 171 170 166 165 166 165 163 160 161 166 171 170 167 178 183 177 177 179 181 181 180 180 174 171 171 170 172 173 172 166 160 164 163 160 160 159 157 151 155 156 157 170 164 156
241 246 248 166 150 140 139 145 134 98 108 167 158 101 98 184 166 141 53 8 158 140 137 225 284 330 341 264 279 295 213 167 159 170 166 149 150 149 146 148 151 155 158 163 166 167 166 166 168 170 168 170 174 173 171 169 167 164 162 160 157 158 163 173 174 169 177 183 177 177 179 181 184 182 177 174 175 172 168 175 175 171 169 169 174 170 161 158 158 156 151 155 160 163 178 169 159
219 213 243 61 118 127 143 154 153 134 162 200 190 119 120 167 148 153 149 170 205 161 158 186 237 278 286 238 232 287 237 172 155 169 170 150 151 154 151 151 154 158 162 166 169 171 171 169 171 171 170 173 175 174 173 173 169 164 164 164 164 165 167 175 177 172 180 186 179 178 177 178 183 184 180 179 178 173 171 178 179 173 172 173 174 170 165 164 167 164 152 151 157 159 168 161 156
266 196 175 148 127 139 163 169 174 158 143 190 190 117 111 152 144 146 148 159 178 186 182 173 203 233 245 241 228 293 266 188 156 167 176 153 154 159 157 155 156 160 164 168 172 174 173 172 173 173 172 175 176 175 176 176 172 169 166 163 167 172 173 176 180 178 182 184 179 181 179 177 184 187 186 186 183 179 179 178 177 175 172 171 171 168 167 168 178 180 169 167 173 171 156 146 151
264 252 177 166 150 155 178 177 177 156 140 166 174 129 109 125 129 131 150 158 163 187 196 178 193 215 224 237 233 105 315 261 169 168 175 156 155 161 162 159 159 162 167 171 174 175 174 174 176 174 175 178 177 176 177 178 176 172 167 163 165 170 174 176 181 183 181 181 181 184 182 178 183 189 188 190 189 186 185 179 177 177 172 170 170 169 171 173 177 178 178 182 182 176 161 146 148
236 261 273 224 162 163 189 186 156 158 158 171 175 163 116 110 154 156 179 182 172 184 195 186 195 204 209 234 259 43 319 296 258 168 172 160 156 162 165 164 163 164 169 173 174 173 172 175 178 177 177 180 180 179 179 180 181 176 169 169 170 171 175 172 175 182 181 180 181 183 183 179 182 187 185 189 192 189 187 183 181 178 172 173 174 176 179 177 175 177 179 178 175 175 170 161 157
219 229 262 253 159 158 177 160 53 162 204 187 176 170 128 114 160 174 202 206 168 163 177 189 200 197 189 227 310 300 270 273 22 55 167 160 157 160 165 170 169 166 170 173 171 171 172 175 179 179 180 182 181 181 183 183 184 180 173 174 177 176 175 171 170 176 177 177 180 183 186 184 183 183 183 189 195 191 188 185 184 180 178 181 184 187 184 177 180 185 177 168 171 178 170 167 169
232 217 244 48 66 55 108 115 336 228 284 216 153 138 98 93 155 172 196 195 161 162 174 177 186 180 156 190 259 256 256 242 104 61 32 146 153 158 163 175 176 166 169 172 168 169 172 175 179 182 182 184 183 183 185 185 185 183 179 180 184 179 174 172 171 170 173 177 180 182 184 185 183 181 184 191 192 192 191 186 183 182 182 187 192 192 183 179 189 189 177 173 184 187 174 174 183
242 209 189 123 121 35 109 166 184 203 263 107 112 103 76 67 120 137 151 158 155 155 145 148 160 157 147 195 235 240 227 211 133 99 69 81 133 158 163 176 180 167 169 171 167 169 172 175 179 182 184 185 185 184 185 186 186 187 186 184 186 182 176 176 175 170 172 178 180 179 180 184 185 183 188 192 190 192 191 184 187 188 186 188 192 191 184 186 196 188 182 188 193 190 183 186 189
276 179 166 148 148 144 170 182 172 225 234 116 99 91 89 104 98 121 133 129 126 118 98 114 145 158 169 193 214 215 203 195 131 119 119 90 77 138 165 178 179 168 170 169 166 169 172 176 181 183 186 187 187 186 186 187 189 191 191 188 188 186 179 179 181 177 177 179 179 181 182 186 188 187 192 195 190 193 192 187 193 198 194 191 189 190 193 194 195 191 193 197 195 193 191 192 192
218 263 339 193 155 158 185 176 180 213 164 109 82 83 129 159 117 113 115 104 104 104 95 102 121 137 164 188 195 169 135 138 126 124 116 103 98 83 157 183 177 167 171 171 167 171 173 176 183 185 186 188 189 190 189 190 192 193 193 190 189 189 183 181 186 185 184 183 184 187 187 190 194 194 198 197 192 197 197 191 195 197 193 194 196 198 200 197 193 192 195 195 194 199 197 197 201
205 215 271 264 217 173 205 212 199 187 113 81 26 76 122 106 78 76 93 100 105 106 101 103 98 93 121 148 138 97 78 87 89 85 78 65 75 95 75 215 188 171 173 175 169 171 174 177 183 186 188 189 190 191 192 193 194 194 194 192 191 192 189 186 186 188 189 187 188 192 193 195 199 200 202 201 199 203 201 192 193 197 195 197 202 200 194 192 190 188 190 192 197 206 204 203 206
223 205 233 269 240 191 236 280 244 181 99 86 95 114 117 87 57 41 61 85 101 106 98 86 76 69 68 74 90 74 25 28 38 40 57 40 17 29 30 350 238 176 176 182 177 174 176 178 181 185 188 190 192 192 194 196 197 197 196 195 193 194 194 191 189 189 191 192 192 194 196 198 200 200 202 205 205 205 205 197 194 199 201 201 204 201 193 195 197 192 192 195 200 206 206 206 208
165 173 304 313 319 312 117 271 283 65 97 105 121 123 126 120 92 74 85 96 115 113 98 79 61 59 53 44 72 91 57 38 25 29 33 16 29 37 34 36 330 262 181 178 179 178 179 180 182 184 186 190 193 193 195 197 199 200 198 197 197 196 196 195 193 193 194 195 194 194 198 199 200 200 202 207 207 203 205 203 198 202 205 204 206 203 198 202 206 204 203 203 203 205 207 209 213
176 25 328 324 327 309 108 164 254 99 109 105 52 64 71 69 131 145 143 145 130 111 97 84 65 55 51 43 58 69 54 40 25 30 20 7 54 65 50 132 160 305 199 151 160 171 175 178 181 184 187 190 193 194 196 198 200 202 201 200 201 199 199 198 196 197 197 198 197 197 200 199 198 200 201 204 205 202 205 206 203 207 209 208 208 203 199 205 211 210 208 208 205 205 211 212 213
360 355 311 235 196 233 207 205 210 126 121 137 108 41 312 334 136 142 143 136 118 108 99 90 78 66 56 47 56 63 52 40 27 30 27 32 75 140 220 154 72 9 12 81 121 147 157 165 174 182 187 189 190 194 197 199 201 203 203 202 202 202 202 200 199 199 199 201 202 201 202 201 198 197 200 206 206 203 206 206 206 212 212 208 208 206 203 207 213 212 208 210 209 209 216 214 214
164 268 267 255 265 238 229 253 215 138 134 149 135 124 259 210 191 170 144 126 111 108 105 95 87 78 66 54 56 61 59 54 43 39 38 47 82 156 128 71 66 7 340 25 77 135 150 154 161 177 190 187 188 191 196 202 203 202 204 205 203 203 203 202 202 204 204 203 204 204 202 204 204 201 201 209 209 204 205 206 207 213 214 212 211 210 209 211 214 214 212 215 217 217 222 220 216
210 205 227 239 256 249 248 287 291 112 121 143 140 131 137 165 181 233 169 124 109 104 103 97 90 83 74 65 60 55 58 61 55 53 50 50 51 28 61 86 99 134 163 75 68 114 150 162 159 152 186 210 204 198 197 210 216 208 204 206 205 203 204 204 204 209 209 205 205 206 204 206 209 205 204 208 207 203 207 211 211 213 215 217 217 212 212 216 219 217 215 219 222 222 225 225 224